VJT228 AYPY-AYGA

Flight info

Callsign VJT228
Flight time 1h 5m
Altitude 18000
Route AYBU DCT NZ DCT 061727S1455942E
Aircraft TBM9/L-SDFGRWY/S

Departure

Time 2026-04-29 19:16
Airport Port Moresby Jacksons International Airport (AYPY)

Arrival

Time 2026-04-29 20:21
Airport Goroka Airport (AYGA)
Time Latitude Longitude Altitude Speed Heading
2026-04-29 19:09 -9.43663 147.21137 120 ft 0 kts 303°
2026-04-29 19:13 -9.43668 147.21144 121 ft 2 kts 303°
2026-04-29 19:13 -9.43680 147.21150 119 ft 2 kts 50°
2026-04-29 19:13 -9.43681 147.21144 119 ft 0 kts 99°
2026-04-29 19:13 -9.43684 147.21157 121 ft 5 kts 104°
2026-04-29 19:14 -9.43702 147.21227 122 ft 16 kts 104°
2026-04-29 19:14 -9.43606 147.21249 121 ft 25 kts 330°
2026-04-29 19:14 -9.43448 147.21150 122 ft 28 kts 328°
2026-04-29 19:14 -9.43278 147.21098 122 ft 27 kts 48°
2026-04-29 19:15 -9.43175 147.21262 123 ft 28 kts 58°
2026-04-29 19:15 -9.43114 147.21369 123 ft 22 kts 76°
2026-04-29 19:15 -9.43182 147.21451 125 ft 17 kts 149°
2026-04-29 19:15 -9.43464 147.21622 123 ft 79 kts 149°
2026-04-29 19:16 -9.44329 147.22155 297 ft 127 kts 145°
2026-04-29 19:16 -9.45107 147.22672 644 ft 141 kts 148°
2026-04-29 19:16 -9.45648 147.23040 1041 ft 138 kts 147°
2026-04-29 19:16 -9.46427 147.23674 1440 ft 155 kts 127°
2026-04-29 19:17 -9.46646 147.24761 1911 ft 164 kts 79°
2026-04-29 19:17 -9.46113 147.25778 2399 ft 169 kts 42°
2026-04-29 19:17 -9.44984 147.26120 2824 ft 177 kts 349°
2026-04-29 19:17 -9.43960 147.25505 3377 ft 176 kts 314°
2026-04-29 19:18 -9.43172 147.24553 3887 ft 178 kts 310°
2026-04-29 19:18 -9.42612 147.23907 4177 ft 183 kts 311°
2026-04-29 19:18 -9.41516 147.22589 4831 ft 185 kts 310°
2026-04-29 19:18 -9.40680 147.21579 5290 ft 188 kts 310°
2026-04-29 19:19 -9.39837 147.20565 5773 ft 189 kts 312°
2026-04-29 19:19 -9.38707 147.19924 6252 ft 191 kts 351°
2026-04-29 19:19 -9.37394 147.19705 6694 ft 193 kts 343°
2026-04-29 19:19 -9.36114 147.19289 7190 ft 194 kts 343°
2026-04-29 19:20 -9.34806 147.18925 7704 ft 195 kts 346°
2026-04-29 19:20 -9.33499 147.18597 8221 ft 197 kts 346°
2026-04-29 19:20 -9.32162 147.18263 8765 ft 198 kts 346°
2026-04-29 19:20 -9.30817 147.17922 9291 ft 200 kts 346°
2026-04-29 19:21 -9.29463 147.17577 9814 ft 202 kts 346°
2026-04-29 19:21 -9.28097 147.17230 10330 ft 203 kts 346°
2026-04-29 19:21 -9.26720 147.16880 10837 ft 205 kts 346°
2026-04-29 19:21 -9.25331 147.16526 11341 ft 207 kts 346°
2026-04-29 19:22 -9.23932 147.16171 11838 ft 208 kts 346°
2026-04-29 19:22 -9.22521 147.15812 12326 ft 210 kts 346°
2026-04-29 19:22 -9.21100 147.15451 12803 ft 211 kts 346°
2026-04-29 19:22 -9.19668 147.15087 13276 ft 213 kts 346°
2026-04-29 19:23 -9.18224 147.14720 13745 ft 215 kts 346°
2026-04-29 19:23 -9.16768 147.14350 14205 ft 216 kts 346°
2026-04-29 19:23 -9.15325 147.13983 14652 ft 218 kts 346°
2026-04-29 19:23 -9.13848 147.13608 15102 ft 219 kts 346°
2026-04-29 19:24 -9.12362 147.13230 15544 ft 221 kts 346°
2026-04-29 19:24 -9.10864 147.12850 15982 ft 222 kts 346°
2026-04-29 19:24 -9.09357 147.12467 16414 ft 224 kts 346°
2026-04-29 19:24 -9.07838 147.12082 16841 ft 226 kts 346°
2026-04-29 19:25 -9.06310 147.11693 17269 ft 227 kts 346°
2026-04-29 19:25 -9.04772 147.11303 17687 ft 229 kts 346°
2026-04-29 19:25 -9.03221 147.10909 18098 ft 230 kts 346°
2026-04-29 19:25 -9.01656 147.10511 18479 ft 234 kts 346°
2026-04-29 19:26 -9.00036 147.10102 18501 ft 251 kts 346°
2026-04-29 19:26 -8.98270 147.09659 18511 ft 264 kts 346°
2026-04-29 19:26 -8.96455 147.09201 18510 ft 273 kts 346°
2026-04-29 19:26 -8.94614 147.08733 18508 ft 279 kts 346°
2026-04-29 19:27 -8.92712 147.08251 18509 ft 284 kts 346°
2026-04-29 19:27 -8.90786 147.07763 18509 ft 287 kts 346°
2026-04-29 19:27 -8.88845 147.07269 18508 ft 289 kts 346°
2026-04-29 19:27 -8.86891 147.06774 18510 ft 290 kts 346°
2026-04-29 19:28 -8.84927 147.06276 18508 ft 291 kts 346°
2026-04-29 19:28 -8.82959 147.05777 18507 ft 292 kts 346°
2026-04-29 19:28 -8.80991 147.05277 18507 ft 292 kts 346°
2026-04-29 19:28 -8.79017 147.04776 18504 ft 292 kts 346°
2026-04-29 19:29 -8.77041 147.04275 18506 ft 293 kts 346°
2026-04-29 19:29 -8.75061 147.03774 18502 ft 293 kts 346°
2026-04-29 19:29 -8.73084 147.03272 18500 ft 293 kts 346°
2026-04-29 19:29 -8.71135 147.02778 18498 ft 293 kts 346°
2026-04-29 19:30 -8.69154 147.02276 18497 ft 293 kts 346°
2026-04-29 19:30 -8.67175 147.01775 18496 ft 293 kts 346°
2026-04-29 19:30 -8.65201 147.01274 18495 ft 293 kts 346°
2026-04-29 19:30 -8.63220 147.00772 18493 ft 292 kts 346°
2026-04-29 19:31 -8.61246 147.00272 18492 ft 292 kts 346°
2026-04-29 19:31 -8.59271 146.99771 18490 ft 292 kts 346°
2026-04-29 19:31 -8.57299 146.99271 18491 ft 292 kts 346°
2026-04-29 19:31 -8.55323 146.98771 18490 ft 293 kts 346°
2026-04-29 19:32 -8.53372 146.98278 18490 ft 293 kts 346°
2026-04-29 19:32 -8.51394 146.97777 18492 ft 292 kts 346°
2026-04-29 19:32 -8.49417 146.97276 18492 ft 292 kts 346°
2026-04-29 19:32 -8.47440 146.96774 18491 ft 293 kts 346°
2026-04-29 19:33 -8.45460 146.96275 18491 ft 293 kts 346°
2026-04-29 19:33 -8.43481 146.95775 18491 ft 293 kts 346°
2026-04-29 19:33 -8.41504 146.95272 18491 ft 293 kts 346°
2026-04-29 19:33 -8.39529 146.94773 18490 ft 293 kts 346°
2026-04-29 19:34 -8.37550 146.94272 18491 ft 293 kts 346°
2026-04-29 19:34 -8.35570 146.93770 18491 ft 293 kts 346°
2026-04-29 19:34 -8.33615 146.93277 18490 ft 293 kts 346°
2026-04-29 19:34 -8.31631 146.92775 18492 ft 294 kts 346°
2026-04-29 19:35 -8.29646 146.92273 18490 ft 294 kts 346°
2026-04-29 19:35 -8.27656 146.91770 18491 ft 294 kts 346°
2026-04-29 19:35 -8.25669 146.91267 18491 ft 294 kts 346°
2026-04-29 19:35 -8.23679 146.90763 18491 ft 295 kts 346°
2026-04-29 19:36 -8.21690 146.90260 18492 ft 295 kts 346°
2026-04-29 19:36 -8.19696 146.89757 18492 ft 295 kts 346°
2026-04-29 19:36 -8.17699 146.89252 18490 ft 296 kts 346°
2026-04-29 19:36 -8.15703 146.88747 18492 ft 296 kts 346°
2026-04-29 19:37 -8.13714 146.88246 18491 ft 296 kts 346°
2026-04-29 19:37 -8.12372 146.87907 18492 ft 296 kts 346°
2026-04-29 19:37 -8.09737 146.87241 18490 ft 295 kts 346°
2026-04-29 19:37 -8.07724 146.86731 18490 ft 295 kts 346°
2026-04-29 19:38 -8.05751 146.86233 18490 ft 295 kts 346°
2026-04-29 19:38 -8.03751 146.85727 18490 ft 295 kts 346°
2026-04-29 19:38 -8.01774 146.85228 18491 ft 295 kts 346°
2026-04-29 19:38 -7.99758 146.84719 18493 ft 296 kts 346°
2026-04-29 19:39 -7.97757 146.84214 18490 ft 296 kts 346°
2026-04-29 19:39 -7.95783 146.83716 18490 ft 296 kts 346°
2026-04-29 19:39 -7.93773 146.83208 18491 ft 296 kts 346°
2026-04-29 19:39 -7.91775 146.82704 18491 ft 296 kts 346°
2026-04-29 19:40 -7.89801 146.82206 18491 ft 295 kts 346°
2026-04-29 19:40 -7.87791 146.81698 18491 ft 295 kts 346°
2026-04-29 19:40 -7.85791 146.81193 18490 ft 295 kts 346°
2026-04-29 19:40 -7.83803 146.80691 18492 ft 296 kts 346°
2026-04-29 19:41 -7.81828 146.80194 18490 ft 296 kts 346°
2026-04-29 19:41 -7.79804 146.79684 18492 ft 296 kts 346°
2026-04-29 19:41 -7.77824 146.79183 18491 ft 295 kts 346°
2026-04-29 19:41 -7.75828 146.78680 18492 ft 295 kts 346°
2026-04-29 19:42 -7.73832 146.78176 18491 ft 295 kts 346°
2026-04-29 19:42 -7.72528 146.77848 18491 ft 295 kts 346°
2026-04-29 19:42 -7.69872 146.77178 18492 ft 294 kts 346°
2026-04-29 19:42 -7.67884 146.76677 18490 ft 294 kts 346°
2026-04-29 19:43 -7.65902 146.76176 18491 ft 294 kts 346°
2026-04-29 19:43 -7.63926 146.75677 18490 ft 294 kts 346°
2026-04-29 19:43 -7.61928 146.75175 18490 ft 295 kts 346°
2026-04-29 19:43 -7.59931 146.74672 18491 ft 295 kts 346°
2026-04-29 19:44 -7.57948 146.74172 18492 ft 295 kts 346°
2026-04-29 19:44 -7.55982 146.73676 18492 ft 295 kts 346°
2026-04-29 19:44 -7.53986 146.73173 18491 ft 295 kts 346°
2026-04-29 19:44 -7.51983 146.72669 18490 ft 295 kts 346°
2026-04-29 19:45 -7.49993 146.72168 18491 ft 295 kts 346°
2026-04-29 19:45 -7.48018 146.71670 18491 ft 295 kts 346°
2026-04-29 19:45 -7.46021 146.71168 18490 ft 295 kts 346°
2026-04-29 19:45 -7.44028 146.70666 18490 ft 295 kts 346°
2026-04-29 19:46 -7.42065 146.70170 18491 ft 295 kts 346°
2026-04-29 19:46 -7.40056 146.69666 18490 ft 295 kts 346°
2026-04-29 19:46 -7.38063 146.69164 18492 ft 294 kts 346°
2026-04-29 19:46 -7.36093 146.68667 18492 ft 294 kts 346°
2026-04-29 19:47 -7.34096 146.68164 18490 ft 294 kts 346°
2026-04-29 19:47 -7.32129 146.67670 18490 ft 294 kts 346°
2026-04-29 19:47 -7.30144 146.67171 18491 ft 294 kts 346°
2026-04-29 19:47 -7.28148 146.66668 18490 ft 293 kts 346°
2026-04-29 19:48 -7.26191 146.66175 18491 ft 293 kts 346°
2026-04-29 19:48 -7.24858 146.65841 18491 ft 293 kts 346°
2026-04-29 19:48 -7.22213 146.65256 18499 ft 293 kts 355°
2026-04-29 19:48 -7.20176 146.65319 18508 ft 293 kts
2026-04-29 19:49 -7.18126 146.65508 18507 ft 293 kts
2026-04-29 19:49 -7.16102 146.65681 18506 ft 293 kts
2026-04-29 19:49 -7.14057 146.65860 18504 ft 294 kts
2026-04-29 19:49 -7.12038 146.66040 18502 ft 293 kts
2026-04-29 19:50 -7.10005 146.66221 18500 ft 293 kts
2026-04-29 19:50 -7.07964 146.66400 18499 ft 293 kts
2026-04-29 19:50 -7.05943 146.66579 18497 ft 293 kts
2026-04-29 19:50 -7.03909 146.66759 18495 ft 293 kts
2026-04-29 19:51 -7.01886 146.66938 18494 ft 293 kts
2026-04-29 19:51 -6.99845 146.67118 18492 ft 294 kts
2026-04-29 19:51 -6.97817 146.67298 18491 ft 294 kts
2026-04-29 19:51 -6.95774 146.67479 18491 ft 294 kts
2026-04-29 19:52 -6.93723 146.67659 18492 ft 294 kts
2026-04-29 19:52 -6.91703 146.67837 18492 ft 295 kts
2026-04-29 19:52 -6.89639 146.68020 18492 ft 295 kts
2026-04-29 19:52 -6.87603 146.68200 18492 ft 295 kts
2026-04-29 19:53 -6.85558 146.68380 18490 ft 296 kts
2026-04-29 19:53 -6.83504 146.68563 18490 ft 296 kts
2026-04-29 19:53 -6.81454 146.68744 18492 ft 295 kts
2026-04-29 19:53 -6.79404 146.68926 18492 ft 294 kts
2026-04-29 19:54 -6.75340 146.69283 18492 ft 294 kts
2026-04-29 19:54 -6.73326 146.69462 18490 ft 293 kts
2026-04-29 19:54 -6.71280 146.69642 18492 ft 293 kts
2026-04-29 19:55 -6.69239 146.69822 18491 ft 293 kts
2026-04-29 19:55 -6.67224 146.70000 18490 ft 293 kts
2026-04-29 19:55 -6.65194 146.70180 18490 ft 292 kts
2026-04-29 19:55 -6.63159 146.70359 18490 ft 292 kts
2026-04-29 19:56 -6.61153 146.70399 18488 ft 291 kts 354°
2026-04-29 19:56 -6.59181 146.69915 18489 ft 291 kts 339°
2026-04-29 19:56 -6.57397 146.68944 18490 ft 290 kts 324°
2026-04-29 19:56 -6.55941 146.67574 18489 ft 290 kts 310°
2026-04-29 19:57 -6.54864 146.65861 18490 ft 289 kts 295°
2026-04-29 19:57 -6.54364 146.64607 18492 ft 289 kts 291°
2026-04-29 19:57 -6.53398 146.62093 18492 ft 290 kts 292°
2026-04-29 19:57 -6.52661 146.60205 18492 ft 290 kts 292°
2026-04-29 19:58 -6.51926 146.58313 18490 ft 290 kts 292°
2026-04-29 19:58 -6.51202 146.56444 18491 ft 290 kts 291°
2026-04-29 19:58 -6.50467 146.54547 18491 ft 290 kts 292°
2026-04-29 19:58 -6.49732 146.52655 18491 ft 289 kts 292°
2026-04-29 19:59 -6.49008 146.50790 18491 ft 289 kts 292°
2026-04-29 19:59 -6.48274 146.48901 18491 ft 289 kts 292°
2026-04-29 19:59 -6.47542 146.47015 18490 ft 289 kts 292°
2026-04-29 19:59 -6.46808 146.45127 18490 ft 289 kts 292°
2026-04-29 20:00 -6.46076 146.43241 18490 ft 289 kts 292°
2026-04-29 20:00 -6.45344 146.41356 18490 ft 289 kts 292°
2026-04-29 20:00 -6.44611 146.39469 18491 ft 289 kts 292°
2026-04-29 20:00 -6.43877 146.37582 18490 ft 289 kts 292°
2026-04-29 20:01 -6.43154 146.35722 18491 ft 289 kts 292°
2026-04-29 20:01 -6.42422 146.33838 18491 ft 289 kts 292°
2026-04-29 20:01 -6.41689 146.31952 18491 ft 289 kts 292°
2026-04-29 20:01 -6.40954 146.30063 18491 ft 290 kts 292°
2026-04-29 20:02 -6.40221 146.28177 18491 ft 290 kts 292°
2026-04-29 20:02 -6.39486 146.26289 18490 ft 290 kts 292°
2026-04-29 20:02 -6.38752 146.24400 18490 ft 290 kts 292°
2026-04-29 20:02 -6.38504 146.23760 18491 ft 290 kts 292°
2026-04-29 20:03 -6.37281 146.20617 18491 ft 290 kts 292°
2026-04-29 20:03 -6.36544 146.18725 18490 ft 290 kts 292°
2026-04-29 20:03 -6.36057 146.17471 18491 ft 291 kts 292°
2026-04-29 20:03 -6.35320 146.15575 18491 ft 291 kts 292°
2026-04-29 20:04 -6.34339 146.13057 18491 ft 292 kts 292°
2026-04-29 20:04 -6.33598 146.11155 18491 ft 292 kts 292°
2026-04-29 20:04 -6.33098 146.09870 18492 ft 292 kts 292°
2026-04-29 20:04 -6.32356 146.07963 18490 ft 293 kts 292°
2026-04-29 20:05 -6.31623 146.06083 18491 ft 293 kts 292°
2026-04-29 20:05 -6.30948 146.04154 18490 ft 293 kts 285°
2026-04-29 20:05 -6.30540 146.02148 18489 ft 293 kts 280°
2026-04-29 20:05 -6.30200 146.00105 18247 ft 300 kts 281°
2026-04-29 20:06 -6.29765 145.98022 17865 ft 307 kts 283°
2026-04-29 20:06 -6.29268 145.95911 17452 ft 312 kts 283°
2026-04-29 20:06 -6.28796 145.93769 17034 ft 315 kts 282°
2026-04-29 20:06 -6.28365 145.91606 16606 ft 316 kts 279°
2026-04-29 20:07 -6.28270 145.89400 16187 ft 316 kts 269°
2026-04-29 20:07 -6.28355 145.87192 15782 ft 315 kts 268°
2026-04-29 20:07 -6.28471 145.85032 15385 ft 313 kts 267°
2026-04-29 20:07 -6.28602 145.82857 15104 ft 309 kts 267°
2026-04-29 20:08 -6.28740 145.80712 14850 ft 306 kts 267°
2026-04-29 20:08 -6.28833 145.79303 14682 ft 304 kts 267°
2026-04-29 20:08 -6.29018 145.76476 14343 ft 302 kts 267°
2026-04-29 20:08 -6.29154 145.74375 14091 ft 301 kts 267°
2026-04-29 20:09 -6.29288 145.72281 13838 ft 300 kts 267°
2026-04-29 20:09 -6.29421 145.70195 13586 ft 298 kts 267°
2026-04-29 20:09 -6.29552 145.68118 13334 ft 298 kts 267°
2026-04-29 20:09 -6.29605 145.66040 13085 ft 297 kts 270°
2026-04-29 20:10 -6.29606 145.63970 12834 ft 296 kts 271°
2026-04-29 20:10 -6.29596 145.61904 12582 ft 295 kts 271°
2026-04-29 20:10 -6.29586 145.59843 12329 ft 294 kts 271°
2026-04-29 20:10 -6.29577 145.57830 12071 ft 279 kts 271°
2026-04-29 20:11 -6.29581 145.55921 11809 ft 268 kts 270°
2026-04-29 20:11 -6.29588 145.54087 11547 ft 248 kts 270°
2026-04-29 20:11 -6.29597 145.52484 11276 ft 222 kts 270°
2026-04-29 20:11 -6.29611 145.50965 11003 ft 216 kts 270°
2026-04-29 20:12 -6.29620 145.49468 10739 ft 207 kts 270°
2026-04-29 20:12 -6.29629 145.48089 10468 ft 188 kts 270°
2026-04-29 20:12 -6.29640 145.46829 10195 ft 173 kts 270°
2026-04-29 20:12 -6.29590 145.45665 9925 ft 161 kts 287°
2026-04-29 20:13 -6.28914 145.44854 9714 ft 149 kts 339°
2026-04-29 20:13 -6.27975 145.44668 9781 ft 142 kts 342°
2026-04-29 20:13 -6.27012 145.44285 9784 ft 154 kts 337°
2026-04-29 20:13 -6.26001 145.43851 9783 ft 159 kts 336°
2026-04-29 20:14 -6.25002 145.43393 9753 ft 154 kts 335°
2026-04-29 20:14 -6.24069 145.42926 9651 ft 146 kts 331°
2026-04-29 20:14 -6.23168 145.42423 9286 ft 153 kts 332°
2026-04-29 20:14 -6.22212 145.41956 8908 ft 152 kts 337°
2026-04-29 20:15 -6.21212 145.41554 8453 ft 157 kts 336°
2026-04-29 20:15 -6.20211 145.41090 8029 ft 159 kts 333°
2026-04-29 20:15 -6.19216 145.40623 7596 ft 159 kts 336°
2026-04-29 20:15 -6.18214 145.40257 7306 ft 150 kts 343°
2026-04-29 20:16 -6.17240 145.39955 7031 ft 143 kts 342°
2026-04-29 20:16 -6.16320 145.39677 6816 ft 134 kts 342°
2026-04-29 20:16 -6.15430 145.39370 6529 ft 133 kts 341°
2026-04-29 20:16 -6.14587 145.39091 6356 ft 123 kts 342°
2026-04-29 20:17 -6.13808 145.38868 6237 ft 109 kts 346°
2026-04-29 20:17 -6.13134 145.38850 6235 ft 92 kts 345°
2026-04-29 20:17 -6.12499 145.38661 6262 ft 105 kts 342°
2026-04-29 20:17 -6.11726 145.38450 6408 ft 125 kts 344°
2026-04-29 20:18 -6.10776 145.38191 6256 ft 158 kts 344°
2026-04-29 20:18 -6.09698 145.37894 6109 ft 153 kts 344°
2026-04-29 20:18 -6.08772 145.37638 6090 ft 127 kts 347°
2026-04-29 20:18 -6.07976 145.37504 6068 ft 106 kts 351°
2026-04-29 20:19 -6.07217 145.37381 6092 ft 117 kts 351°
2026-04-29 20:19 -6.06380 145.37251 6101 ft 126 kts 351°
2026-04-29 20:19 -6.05502 145.37115 6102 ft 125 kts 352°
2026-04-29 20:19 -6.04762 145.37368 6121 ft 123 kts 57°
2026-04-29 20:20 -6.04848 145.38174 6103 ft 127 kts 133°
2026-04-29 20:20 -6.05365 145.38777 6020 ft 101 kts 146°
2026-04-29 20:20 -6.06026 145.38935 5755 ft 101 kts 178°
2026-04-29 20:20 -6.06709 145.39002 5542 ft 97 kts 175°
2026-04-29 20:21 -6.07384 145.39049 5365 ft 96 kts 178°
2026-04-29 20:21 -6.07883 145.39097 5265 ft 85 kts 174°
2026-04-29 20:21 -6.08345 145.39141 5217 ft 44 kts 176°
2026-04-29 20:21 -6.08550 145.39155 5198 ft 9 kts 72°
2026-04-29 20:22 -6.08542 145.39160 5198 ft 5 kts 352°
2026-04-29 20:22 -6.08439 145.39147 5207 ft 34 kts 354°
2026-04-29 20:22 -6.08201 145.39123 5231 ft 33 kts 354°
2026-04-29 20:22 -6.08083 145.39117 5240 ft 1 kts 47°
2026-04-29 20:23 -6.08076 145.39177 5229 ft 19 kts 84°
2026-04-29 20:23 -6.08061 145.39272 5221 ft 15 kts 47°
2026-04-29 20:23 -6.07980 145.39292 5231 ft 2 kts 351°